Regional Weather Roundup
Issued by NWS

Home | Current Version | Previous Version | Text Only | Print | Product List | Glossary Off
Versions: 1 2 3 4 5 6 7 8 9 10 11 12 13 14 15 16 17 18 19 20 21 22 23 24 25 26 27 28 29 30 31 32 33 34 35 36 37 38 39 40 41 42 43 44 45 46 47 48 49 50

000
ASUS45 KBOU 051907
RWRCO

WEATHER ROUNDUP FOR COLORADO
NATIONAL WEATHER SERVICE DENVER/BOULDER CO
1200 PM MST THU MAR 05 2015

NOTE: "FAIR" INDICATES FEW OR NO CLOUDS BELOW 12000 FEET WITH NO
SIGNIFICANT WEATHER AND/OR OBSTRUCTIONS TO VISIBILITY.

COZ001>005-013-030-031-052000-
...NORTHWEST COLORADO...

CITY           SKY/WX    TMP DP  RH WIND       PRES   REMARKS
CRAIG          NOT AVBL
HAYDEN         PTSUNNY   27   7  43 E5        30.37F WCI  21
MEEKER         NOT AVBL
MOUNT WERNER   NOT AVBL
STEAMBOAT SPGS PTSUNNY   21   7  54 CALM      30.36F
WALDEN         MOSUNNY   28   9  43 S14       30.28S WCI  17
$$

COZ006>008-011-052000-
...WEST CENTRAL VALLEYS...

CITY           SKY/WX    TMP DP  RH WIND       PRES   REMARKS
GRAND JUNCTION NOT AVBL
MONTROSE       SUNNY     35  11  36 CALM      30.43F
EAGLE          MOSUNNY   27  10  50 CALM      30.40F
RIFLE          SUNNY     32  11  41 CALM      30.42F
DELTA          SUNNY     39  11  31 CALM      30.44F
NUCLA          SUNNY     36  12  38 NW3       30.44F
$$

COZ017>023-064>068-052000-
...SOUTHWEST COLORADO...

CITY           SKY/WX    TMP DP  RH WIND       PRES   REMARKS
DURANGO        NOT AVBL
CORTEZ         NOT AVBL
PAGOSA SPRINGS SUNNY     34  -5  18 SW5       30.35F WCI  30
TELLURIDE      SUNNY     33 -13  13 W5        30.37S WCI  29
WOLF CREEK PAS SUNNY     19  14  79 NW7       30.34R WCI  10
$$

COZ009-010-012-014-032>034-037-058>063-052000-
...CENTRAL COLORADO...

CITY           SKY/WX    TMP DP  RH WIND       PRES   REMARKS
ASPEN          NOT AVBL
BUENA VISTA    SUNNY     32   1  27 E7        30.25F WCI  26
COPPER MTN     SUNNY     19  -2  38 W23G32    30.24  WCI   2
BERTHOUD PASS  NOT AVBL
COTTONWOOD PAS SUNNY     34  -9  15 SW18G25   30.23F WCI  23
GUNNISON       SUNNY     12  -2  52 CALM      30.44F
KREMMLING      SUNNY     19   5  53 CALM      30.38F
LEADVILLE      SUNNY     25   0  33 NW18G28   30.25F WCI  11
SALIDA         SUNNY     37   4  24 SW16G29   30.31F
SUNLIGHT       SUNNY     23  16  74 CALM        N/A
WILKERSON PASS CLOUDY    19  -6  32 W6        30.23R WCI  11
$$

COZ069>075-052000-
...SAN LUIS VALLEY/SANGRE DE CRISTO MOUNTAINS...

CITY           SKY/WX    TMP DP  RH WIND       PRES   REMARKS
ALAMOSA        NOT AVBL
LA VETA PASS   SUNNY     27   1  33 S21G30    30.23S WCI  13
SAGUACHE       SUNNY     28   7  40 SE3       30.33F
$$

COZ035-036-038>040-052000-
...NORTHERN COLORADO FRONT RANGE...

CITY           SKY/WX    TMP DP  RH WIND       PRES   REMARKS
DENVER INTL AP NOT AVBL
DMNS CITY PARK   N/A     38  18  44 NE8       30.19F
AURORA         PTSUNNY   40   7  25 E5        30.20S
FRONT RANGE AP PTSUNNY   30  21  69 NE6       30.21  WCI  24
ERIE MUNI ARPT CLOUDY    24  11  57 NE3       30.23S
BOULDER MUN AP CLOUDY    28  10  47 N6        30.21F WCI  22
CENTENNIAL     NOT AVBL
BROOMFIELD     NOT AVBL
FORT COLLINS   PTSUNNY   25  10  54 N7        30.25S WCI  17
LONGMONT       PTSUNNY   35   9  33 CALM      30.24F
$$

COZ041-046-047-076>085-087-088-052000-
...PIKES PEAK/PALMER DIVIDE AND SOUTHERN FOOTHILLS...

CITY           SKY/WX    TMP DP  RH WIND       PRES   REMARKS
COLO. SPRINGS  PTSUNNY   33   5  30 E5        30.22S WCI  29
A. F. ACADEMY  PTSUNNY   33   3  27 SE8       30.19F WCI  26
ELLICOTT       NOT AVBL
FALCON         PTSUNNY   34   8  32 CALM      30.21F
FORT CARSON    NOT AVBL
LIMON          MOSUNNY   26  13  57 SE7       30.24S WCI  18
MONUMENT HILL  PTSUNNY   37   9  30 S6        30.18S
TRINIDAD       SUNNY     32  17  54 SW3       30.25F
$$

COZ042>045-048>051-090-091-052000-
...NORTHEAST COLORADO...

CITY           SKY/WX    TMP DP  RH WIND       PRES   REMARKS
GREELEY ARPT   MOSUNNY   27  12  54 CALM      30.24S
AKRON          NOT AVBL
BURLINGTON     SUNNY     41  14  33 SW9       30.27F
WRAY           SUNNY     47   5  18 SW10      30.25F
STERLING       SUNNY     41  10  28 SW9       30.24F
HOLYOKE        NOT AVBL
FORT MORGAN    SUNNY     38  10  32 CALM      30.25F
$$

COZ086-089-092>099-052000-
...SOUTHEAST COLORADO...

CITY           SKY/WX    TMP DP  RH WIND       PRES   REMARKS
PUEBLO         MOSUNNY   31  17  56 E7        30.26F WCI  24
LA JUNTA       NOT AVBL
LAMAR          SUNNY     41  19  41 SW9       30.30F
SPRINGFIELD      N/A     40   8  26 SW10      30.31F
$$


USA.gov is the U.S. government's official web portal to all federal, state and local government web resources and services.